Starlink 34967

operational
NORAD ID: 65177 Int'l Des: 2025-175 Owner: SPXS Country: US Constellation: starlink
LEOCIRCULARRETROGRADESSO

关于 Starlink 34967

正在加载描述...

实时位置

正在加载3D地球...

即将过境

高度历史

Altitude vs Time

uPlot chart will show altitude changes over time

两行轨道根数

1 65177U 25175D 25340.89300251 .00007276 00000-0 50776-3 0 9998
2 65177 97.6034 211.1362 0003017 84.6791 275.4780 15.05663066 18672
Epoch: Dec 6, 2025 • Age: 21 hours

当前状态

高度 568.0 km
速度 7.57 km/s
星下点 -44.77°S, 126.71°W
发射日期 Aug 14, 2025
运行时间 0.3 years
类型 internet

技术详情

分类 Payload
质量 575.00 kg
干质量 530.00 kg
总质量 575.00 kg
长度 0.30 m
直径 4.10 m
跨度 29.00 m
形状 Box + pan
制造商 SPXS
平台类型 Starlink V2MO
阶段状态 In Orbit
所有者/国家 SPXS/US

大型星座

Loading constellations...